TimeEST,TemperatureF,Dew PointF,Humidity,Sea Level PressureIn,VisibilityMPH,Wind Direction,Wind SpeedMPH,Gust SpeedMPH,PrecipitationIn,Events,Conditions,WindDirDegrees,DateUTC
12:15 AM,32.0,24.8,75,29.45,10.0,SSW,10.4,18.4,N/A,,Overcast,210,2014-01-27 05:15:00
12:35 AM,32.0,24.8,75,29.44,10.0,SSW,15.0,18.4,N/A,,Overcast,200,2014-01-27 05:35:00
12:55 AM,32.0,24.8,75,29.42,10.0,South,16.1,23.0,N/A,,Overcast,190,2014-01-27 05:55:00
1:15 AM,32.0,24.8,75,29.42,10.0,South,17.3,21.9,N/A,,Overcast,190,2014-01-27 06:15:00
1:35 AM,32.0,24.8,75,29.41,10.0,South,18.4,26.5,N/A,,Overcast,190,2014-01-27 06:35:00
1:55 AM,32.0,24.8,75,29.40,10.0,South,17.3,-,N/A,,Overcast,190,2014-01-27 06:55:00
2:15 AM,33.8,24.8,70,29.39,10.0,South,19.6,27.6,N/A,,Overcast,190,2014-01-27 07:15:00
2:35 AM,33.8,26.6,75,29.39,10.0,SSW,20.7,28.8,N/A,,Overcast,200,2014-01-27 07:35:00
2:55 AM,35.6,26.6,70,29.38,10.0,SSW,17.3,28.8,N/A,,Overcast,200,2014-01-27 07:55:00
3:15 AM,35.6,26.6,70,29.38,10.0,SSW,16.1,27.6,N/A,,Overcast,210,2014-01-27 08:15:00
3:35 AM,35.6,28.4,75,29.39,10.0,SW,20.7,25.3,N/A,,Overcast,230,2014-01-27 08:35:00
3:55 AM,35.6,28.4,75,29.41,8.0,WSW,23.0,31.1,N/A,,Overcast,240,2014-01-27 08:55:00
4:15 AM,26.6,23.0,86,29.46,0.8,West,16.1,29.9,N/A,,Overcast,280,2014-01-27 09:15:00
4:35 AM,26.6,23.0,86,29.48,1.0,WNW,13.8,26.5,N/A,,Overcast,290,2014-01-27 09:35:00
4:55 AM,24.8,19.4,80,29.50,1.0,West,12.7,25.3,N/A,,Overcast,280,2014-01-27 09:55:00
5:15 AM,23.0,19.4,86,29.53,1.5,West,17.3,29.9,N/A,,Overcast,280,2014-01-27 10:15:00
5:35 AM,21.2,17.6,86,29.56,1.2,West,24.2,42.6,N/A,,Overcast,270,2014-01-27 10:35:00
5:55 AM,21.2,17.6,86,29.59,1.0,West,26.5,33.4,N/A,,Overcast,260,2014-01-27 10:55:00
6:15 AM,19.4,14.0,80,29.61,1.2,West,23.0,34.5,N/A,,Overcast,260,2014-01-27 11:15:00
6:35 AM,19.4,15.8,86,29.64,1.8,West,17.3,28.8,N/A,,Overcast,280,2014-01-27 11:35:00
6:55 AM,14.0,6.8,73,29.69,0.8,WNW,18.4,29.9,N/A,,Overcast,300,2014-01-27 11:55:00
7:15 AM,12.2,6.8,79,29.71,1.8,WNW,16.1,27.6,N/A,,Overcast,300,2014-01-27 12:15:00
7:35 AM,12.2,6.8,79,29.74,1.2,WNW,15.0,28.8,N/A,,Overcast,300,2014-01-27 12:35:00
7:55 AM,12.2,3.2,67,29.76,2.5,West,17.3,26.5,N/A,,Mostly Cloudy,280,2014-01-27 12:55:00
8:15 AM,12.2,3.2,67,29.78,2.0,WNW,15.0,27.6,N/A,,Overcast,290,2014-01-27 13:15:00
8:35 AM,10.4,3.2,73,29.80,2.0,WNW,15.0,21.9,N/A,,Overcast,290,2014-01-27 13:35:00
8:55 AM,10.4,3.2,73,29.82,7.0,West,16.1,26.5,N/A,,Mostly Cloudy,270,2014-01-27 13:55:00
9:15 AM,10.4,1.4,67,29.83,5.0,WNW,16.1,25.3,N/A,,Partly Cloudy,290,2014-01-27 14:15:00
9:35 AM,10.4,-0.4,62,29.85,10.0,WNW,12.7,25.3,N/A,,Scattered Clouds,290,2014-01-27 14:35:00
9:55 AM,10.4,1.4,67,29.87,4.0,WNW,13.8,18.4,N/A,,Mostly Cloudy,290,2014-01-27 14:55:00
10:15 AM,10.4,-0.4,62,29.88,5.0,West,15.0,26.5,N/A,,Mostly Cloudy,280,2014-01-27 15:15:00
10:35 AM,10.4,-0.4,62,29.90,10.0,West,10.4,19.6,N/A,,Mostly Cloudy,280,2014-01-27 15:35:00
10:55 AM,10.4,-0.4,62,29.91,6.0,West,13.8,23.0,N/A,,Overcast,260,2014-01-27 15:55:00
11:15 AM,10.4,1.4,67,29.92,5.0,West,12.7,21.9,N/A,,Mostly Cloudy,270,2014-01-27 16:15:00
11:35 AM,10.4,1.4,67,29.92,10.0,West,15.0,-,N/A,,Mostly Cloudy,280,2014-01-27 16:35:00
11:55 AM,10.4,-0.4,62,29.92,10.0,WNW,15.0,19.6,N/A,,Mostly Cloudy,290,2014-01-27 16:55:00
12:15 PM,10.4,-0.4,62,29.92,8.0,West,11.5,20.7,N/A,,Mostly Cloudy,280,2014-01-27 17:15:00
12:35 PM,12.2,-0.4,57,29.93,6.0,West,17.3,-,N/A,,Mostly Cloudy,280,2014-01-27 17:35:00
12:55 PM,10.4,-2.2,57,29.92,5.0,WNW,9.2,18.4,N/A,,Overcast,290,2014-01-27 17:55:00
1:15 PM,10.4,1.4,67,29.92,7.0,WNW,12.7,16.1,N/A,,Overcast,300,2014-01-27 18:15:00
1:35 PM,10.4,-2.2,57,29.92,10.0,West,12.7,16.1,N/A,,Overcast,280,2014-01-27 18:35:00
1:55 PM,10.4,-4.0,52,29.92,10.0,West,15.0,21.9,N/A,,Mostly Cloudy,270,2014-01-27 18:55:00
2:15 PM,10.4,-2.2,57,29.92,10.0,West,17.3,24.2,N/A,,Overcast,280,2014-01-27 19:15:00
2:35 PM,12.2,-0.4,57,29.92,10.0,WNW,12.7,20.7,N/A,,Overcast,300,2014-01-27 19:35:00
2:55 PM,10.4,-5.8,48,29.93,10.0,WNW,12.7,21.9,N/A,,Overcast,290,2014-01-27 19:55:00
3:15 PM,10.4,-0.4,62,29.94,10.0,West,11.5,16.1,N/A,,Overcast,270,2014-01-27 20:15:00
3:35 PM,10.4,-2.2,57,29.94,10.0,WNW,9.2,16.1,N/A,,Overcast,290,2014-01-27 20:35:00
3:55 PM,10.4,-0.4,62,29.95,10.0,West,11.5,18.4,N/A,,Mostly Cloudy,260,2014-01-27 20:55:00
4:15 PM,10.4,-0.4,62,29.97,10.0,West,11.5,20.7,N/A,,Scattered Clouds,280,2014-01-27 21:15:00
4:35 PM,8.6,-0.4,67,29.97,2.5,West,10.4,-,N/A,,Mostly Cloudy,270,2014-01-27 21:35:00
4:55 PM,8.6,1.4,73,29.97,1.8,West,9.2,-,N/A,,Overcast,270,2014-01-27 21:55:00
5:15 PM,8.6,1.4,73,29.98,4.0,West,10.4,-,N/A,,Overcast,260,2014-01-27 22:15:00
5:35 PM,8.6,-0.4,67,29.99,10.0,West,10.4,-,N/A,,Mostly Cloudy,260,2014-01-27 22:35:00
5:55 PM,6.8,-0.4,72,29.99,5.0,WSW,12.7,20.7,N/A,,Mostly Cloudy,250,2014-01-27 22:55:00
6:15 PM,6.8,-2.2,67,30.00,4.0,West,10.4,-,N/A,,Mostly Cloudy,270,2014-01-27 23:15:00
6:35 PM,6.8,-2.2,67,30.01,10.0,WSW,13.8,19.6,N/A,,Mostly Cloudy,250,2014-01-27 23:35:00
6:55 PM,6.8,-2.2,67,30.02,10.0,West,13.8,-,N/A,,Mostly Cloudy,260,2014-01-27 23:55:00
7:15 PM,5.0,-5.8,61,30.03,10.0,West,12.7,16.1,N/A,,Scattered Clouds,260,2014-01-28 00:15:00
7:35 PM,5.0,-5.8,61,30.04,10.0,West,13.8,18.4,N/A,,Partly Cloudy,260,2014-01-28 00:35:00
7:55 PM,3.2,-5.8,66,30.05,10.0,WSW,10.4,18.4,N/A,,Clear,250,2014-01-28 00:55:00
8:15 PM,3.2,-5.8,66,30.06,10.0,WSW,11.5,-,N/A,,Clear,250,2014-01-28 01:15:00
8:35 PM,3.2,-7.6,61,30.07,10.0,WSW,13.8,20.7,N/A,,Partly Cloudy,250,2014-01-28 01:35:00
8:55 PM,3.2,-5.8,66,30.08,10.0,West,16.1,24.2,N/A,,Mostly Cloudy,270,2014-01-28 01:55:00
9:15 PM,3.2,-7.6,61,30.08,9.0,West,11.5,21.9,N/A,,Mostly Cloudy,270,2014-01-28 02:15:00
9:35 PM,1.4,-7.6,66,30.10,9.0,WSW,12.7,20.7,N/A,,Mostly Cloudy,250,2014-01-28 02:35:00
9:55 PM,1.4,-7.6,66,30.10,10.0,West,15.0,20.7,N/A,,Scattered Clouds,270,2014-01-28 02:55:00
10:15 PM,1.4,-9.4,61,30.11,10.0,West,13.8,23.0,N/A,,Partly Cloudy,260,2014-01-28 03:15:00
10:35 PM,1.4,-7.6,66,30.12,10.0,West,11.5,16.1,N/A,,Clear,260,2014-01-28 03:35:00
10:55 PM,-0.4,-7.6,72,30.13,10.0,WSW,11.5,19.6,N/A,,Scattered Clouds,250,2014-01-28 03:55:00
11:15 PM,-0.4,-9.4,66,30.14,10.0,WSW,11.5,20.7,N/A,,Mostly Cloudy,250,2014-01-28 04:15:00
11:35 PM,-0.4,-9.4,66,30.15,8.0,WSW,15.0,19.6,N/A,,Mostly Cloudy,250,2014-01-28 04:35:00
11:55 PM,-0.4,-9.4,66,30.16,9.0,West,16.1,21.9,N/A,,Scattered Clouds,260,2014-01-28 04:55:00